Regional Weather Roundup
Issued by NWS

Home | Current Version | Previous Version | Text Only | Print | Product List | Glossary On
Versions: 1 2 3 4 5 6 7 8 9 10 11 12 13 14 15 16 17 18 19 20 21 22 23 24 25 26 27 28
000
ASUS44 KJAN 262110
RWRMS

MISSISSIPPI HOURLY WEATHER ROUNDUP
NATIONAL WEATHER SERVICE JACKSON MS
400 PM CDT SUN MAR 26 2017

NOTE: "FAIR: INDICATES FEW OR NO CLOUDS BELOW 12,000 FEET WITH NO
SIGNIFICANT WEATHER AND/OR OBSTRUCTIONS TO VISIBILITY.

MSZ001>002-007>008-010>013-018>021-025>028-034>036-262200-
NORTHWEST MISSISSIPPI

CITY           SKY/WX    TMP DP  RH WIND       PRES   REMARKS
BATESVILLE     FAIR      75  53  46 SW17G23   29.96F
CLEVELAND      FAIR      76  54  46 S8G18     29.94F
GREENWOOD      SUNNY     78  56  46 SW7       29.95F
GREENVILLE     SUNNY     76  55  48 S9        29.93F
OXFORD         FAIR      75  48  38 SW7       29.97F
WINONA         FAIR      77  55  45 SW8       29.95F
$$

MSZ003>006-009-014>017-022>024-029>033-037>039-262200-
NORTHEAST MISSISSIPPI

CITY           SKY/WX    TMP DP  RH WIND       PRES   REMARKS
COLUMBUS AFB   MOSUNNY   78  58  50 S12       29.96F
STARKVILLE     FAIR      79  54  41 SW9       29.97F
TUPELO         MOSUNNY   76  52  43 S9        29.96F
$$

MSZ040-058-262200-
CENTRAL MISSISSIPPI

CITY           SKY/WX    TMP DP  RH WIND       PRES   REMARKS
JACKSON INTL   MOSUNNY   80  57  45 SW12      29.95F
JACKSON HAWKNS MOSUNNY   80  55  42 SW10G16   29.95F
MERIDIAN KEY   SUNNY     82  58  43 SW9G20    29.98F
MERIDIAN NAS   MOSUNNY   81  55  40 SW12G18   29.99F
VICKSBURG VKS  CLEAR     84  59  42 SW9       29.91F
$$

MSZ059>079-262200-
SOUTH MISSISSIPPI

CITY           SKY/WX    TMP DP  RH WIND       PRES   REMARKS
BROOKHAVEN     FAIR      86  61  42 SE9       29.98F
HATTIESBURG    MOSUNNY   83  59  44 S9        29.99F
MCCOMB         SUNNY     81  58  45 S10       29.97F
NATCHEZ        PTSUNNY   82  61  47 S12       29.95S
PINE BELT      MOSUNNY   82  57  42 S7G16     30.00F
$$

MSZ080>082-262200-
COASTAL MISSISSIPPI

CITY           SKY/WX    TMP DP  RH WIND       PRES   REMARKS
BAY ST LOUIS   MOSUNNY   79  63  57 S13       30.01F
BILOXI         SUNNY     77  70  78 S12       30.03F
PASCAGOULA     MOSUNNY   79  64  60 S12       30.04S
GULFPORT       MOSUNNY   77  68  73 S10       30.02F
$$

LAZ007>009-015>016-023>026-262200-
NORTHEAST LOUISIANA

CITY           SKY/WX    TMP DP  RH WIND       PRES   REMARKS
BASTROP        FAIR      81  55  40 S6        29.94S
TALLULAH/VBURG SUNNY     83  53  35 VRB6      29.94F
$$




USA.gov is the U.S. government's official web portal to all federal, state and local government web resources and services.